Weather History for Vancouver, BC

Change the Weather History Date:

Thursday, February 6, 2014

  Actual Average Record
Temperature  
Mean Temperature 24 °F -  
Max Temperature 34 °F 43 °F 51 °F (1998)
Min Temperature 14 °F 34 °F 14 °F (2014)
Degree Days  
Heating Degree Days 41    
Moisture  
Dew Point 4 °F    
Average Humidity 40    
Maximum Humidity 59    
Minimum Humidity 18    
Precipitation  
Precipitation 0.00 in - - ()
Sea Level Pressure  
Sea Level Pressure 30.07 in    
Wind  
Wind Speed 7 mph ()    
Max Wind Speed 15 mph    
Max Gust Speed 18 mph    
Visibility 19.9 miles    
Events      
Averages and records for this station are not official NWS values.
T = Trace of Precipitation, MM = Missing Value Source: Averaged Metar Reports

Daily Weather History Graph

Daily Weather History Graph

Search for Another Location

Airport:

Trip Planner

Search our weather history database for the weather conditions in past years. The results will help you decide how hot, cold, wet, or windy it might be!

Date:

Astronomy

Feb. 06, 2014 Rise Set
Actual Time 7:36 AM PST 5:18 PM PST
Civil Twilight 7:02 AM PST 5:51 PM PST
Nautical Twilight 6:24 AM PST 6:29 PM PST
Astronomical Twilight 5:47 AM PST 7:06 PM PST
Moon 10:51 AM PST (2/6) 12:58 AM PST (2/6)
Length of Visible Light 10h 49m
Length of Day
9h 41m
Waxing Crescent, 50% of the Moon is Illuminated
Feb 6
Waxing Crescent
Feb 14
Full
Feb 22
Last Quarter
Mar 1
New
Mar 8
First Quarter

Hourly Weather History & Observations

Time (PST) Temp. Windchill Dew Point Humidity Pressure Visibility Wind Dir Wind Speed Gust Speed Precip Events Conditions
12:00 AM 19.4 °F 7.9 °F -0.4 °F 42% 30.38 in 20.0 mi East 10.4 mph - N/A   Clear
1:00 AM 17.6 °F 5.7 °F -0.4 °F 45% 30.35 in 20.0 mi East 10.4 mph - N/A   Clear
2:00 AM 19.4 °F 8.6 °F -0.4 °F 42% 30.33 in 20.0 mi ESE 9.2 mph - N/A   Clear
3:00 AM 19.4 °F 8.6 °F -0.4 °F 42% 30.30 in 20.0 mi ESE 9.2 mph - N/A   Clear
4:00 AM 18 °F - 1 °F 32% 30.28 in 19 mi SE 9.2 mph - -  
4:00 AM 17.6 °F 7.3 °F 1.4 °F 49% 30.28 in 20.0 mi SE 8.1 mph - N/A   Clear
5:00 AM 17.6 °F 6.4 °F 1.4 °F 49% 30.25 in 20.0 mi East 9.2 mph - N/A   Clear
6:00 AM 17.6 °F 7.3 °F -0.4 °F 45% 30.23 in 20.0 mi ESE 8.1 mph - N/A   Clear
7:00 AM 19.4 °F 10.4 °F -0.4 °F 42% 30.20 in 30.0 mi East 6.9 mph - N/A   Partly Cloudy
8:00 AM 17.6 °F 7.3 °F -0.4 °F 45% 30.19 in 30.0 mi East 8.1 mph - N/A   Partly Cloudy
9:00 AM 21.2 °F - 1.4 °F 42% 30.17 in 30.0 mi Calm Calm - N/A   Partly Cloudy
10:00 AM 26 °F - -0 °F 18% 30.15 in 28 mi East 8.1 mph - -   Clear
10:00 AM 26.6 °F 17.5 °F -0.4 °F 31% 30.15 in 30.0 mi East 9.2 mph - N/A   Scattered Clouds
11:00 AM 30.2 °F 20.8 °F -0.4 °F 27% 30.12 in 30.0 mi East 11.5 mph - N/A   Partly Cloudy
12:00 PM 32.0 °F 21.6 °F -5.8 °F 20% 30.08 in 30.0 mi East 15.0 mph - N/A   Scattered Clouds
1:00 PM 33.8 °F 26.4 °F -5.8 °F 18% 30.03 in 30.0 mi East 9.2 mph 18.4 mph N/A   Scattered Clouds
2:00 PM 32.0 °F 26.4 °F 3.2 °F 30% 29.98 in 30.0 mi West 5.8 mph - N/A   Mostly Cloudy
3:00 PM 30.2 °F 21.3 °F 6.8 °F 37% 29.96 in 30.0 mi WNW 10.4 mph - N/A   Mostly Cloudy
4:00 PM 30 °F - 7 °F 23% 29.92 in 28 mi West 6.9 mph - -   Overcast
4:00 PM 30.2 °F 23.4 °F 6.8 °F 37% 29.92 in 30.0 mi West 6.9 mph - N/A   Overcast
5:00 PM 28.4 °F 22.2 °F 10.4 °F 47% 29.88 in 30.0 mi West 5.8 mph - N/A   Mostly Cloudy
6:00 PM 28.4 °F 23.3 °F 10.4 °F 47% 29.86 in 30.0 mi West 4.6 mph - N/A   Mostly Cloudy
7:00 PM 28.4 °F - 10.4 °F 47% 29.85 in 20.0 mi Variable 2.3 mph - N/A   Overcast
8:00 PM 26.6 °F 22.6 °F 14.0 °F 59% 29.84 in 20.0 mi NNW 3.5 mph - N/A   Mostly Cloudy
9:00 PM 28.4 °F - 12.2 °F 51% 29.83 in 20.0 mi Calm Calm - N/A   Mostly Cloudy
10:00 PM 27 °F - 15 °F 47% 29.83 in 19 mi SSE 3.5 mph - -   Mostly Cloudy
10:00 PM 26.6 °F 22.6 °F 14.0 °F 59% 29.83 in 20.0 mi SE 3.5 mph - N/A   Mostly Cloudy
11:00 PM 26.6 °F 18.2 °F 12.2 °F 55% 29.82 in 20.0 mi SE 8.1 mph - N/A   Mostly Cloudy